EHI
0 0 0 0 0 0 0 1 2 3 2 1 1 2 3 3 3 3 3 3 1 0 0 0 0 0 0 0 0 0 0 0 0 0 0 0 0 0 0 0 0 0 0
0 0 0 0 0 0 0 1 2 3 2 1 0 1 2 3 3 3 3 3 2 1 0 0 0 0 0 0 0 0 0 0 0 0 0 0 0 0 0 0 0 0 0
0 0 0 0 0 0 0 1 2 3 2 0 0 0 1 1 2 3 3 3 3 2 1 0 0 0 0 0 0 0 0 0 0 0 0 0 0 0 0 0 0 0 0
0 0 0 0 0 0 0 1 2 3 2 1 0 0 0 0 1 1 2 2 3 2 1 0 0 0 0 0 0 0 0 0 0 0 0 0 0 0 0 0 0 0 0
0 0 0 0 0 0 0 1 2 3 2 1 0 0 0 0 0 0 1 1 1 1 1 0 0 0 0 0 0 0 0 0 0 0 0 0 0 0 0 0 0 0 0
0 0 0 0 0 0 0 0 1 3 2 1 0 0 0 0 0 0 0 0 0 0 0 0 0 0 0 0 0 0 0 0 0 0 0 0 0 0 0 0 0 0 0
0 0 0 0 0 0 0 0 1 2 2 1 0 0 0 0 0 0 0 0 0 0 0 0 0 0 0 0 0 0 0 0 0 0 0 0 0 0 0 0 0 0 0
0 0 0 0 0 0 0 0 1 2 1 0 0 0 0 0 0 0 0 0 0 0 0 0 0 0 0 0 0 0 0 0 0 0 0 0 0 0 0 0 0 0 0
0 0 0 0 0 0 0 0 1 1 0 0 0 0 0 0 0 0 0 0 0 0 0 0 0 0 0 0 0 0 0 0 0 0 0 0 0 0 0 0 0 0 0
0 0 0 0 0 0 0 0 0 0 0 0 0 0 0 0 0 0 0 0 0 0 0 0 0 0 0 0 0 0 0 0 0 0 0 0 0 0 0 0 0 0 0
0 0 0 0 0 0 0 0 0 0 0 0 0 0 0 0 0 0 0 0 0 0 0 0 0 0 0 0 0 0 0 0 0 0 0 0 0 0 0 0 0 0 0
0 0 0 0 0 0 0 0 0 0 0 0 0 0 0 0 0 0 0 0 0 0 0 0 0 0 0 0 0 0 0 0 0 0 0 0 0 0 0 0 0 0 0
0 0 0 0 0 0 0 0 0 0 0 0 0 0 0 0 0 0 0 0 0 0 0 0 0 0 0 0 0 0 0 0 0 0 0 0 0 0 0 0 0 0 0
0 0 0 0 0 0 0 0 0 0 0 0 0 0 0 0 0 0 0 0 0 0 0 0 0 0 0 0 0 0 0 0 0 0 0 0 0 0 0 0 0 0 0
0 0 0 0 0 0 0 0 0 0 0 0 0 0 0 0 0 0 0 0 0 0 0 0 0 0 0 0 0 0 0 0 0 0 0 0 0 0 0 0 0 0 0
0 0 0 0 0 0 0 0 0 0 0 0 0 0 0 0 0 0 0 0 0 0 0 0 0 0 0 0 0 0 0 0 0 0 0 0 0 0 0 0 0 0 0
0 0 0 0 0 0 0 0 0 0 0 0 0 0 0 0 0 0 0 0 0 0 0 0 0 0 0 0 0 0 0 0 0 0 0 0 0 0 0 0 0 0 0
0 0 0 0 0 0 0 0 0 0 0 0 0 0 0 0 0 0 0 0 0 0 0 0 0 0 0 0 0 0 0 0 0 0 0 0 0 0 0 0 0 0 0
0 0 0 0 0 0 0 0 0 0 0 0 0 0 0 0 0 0 0 0 0 0 0 0 0 0 0 0 0 0 0 0 0 0 0 0 0 0 0 0 0 0 0
0 0 0 0 0 0 0 0 0 0 0 0 0 0 0 0 0 0 0 0 0 0 0 0 0 0 0 0 0 0 0 0 0 0 0 0 0 0 0 0 0 0 0
0 0 0 0 0 0 0 0 0 0 0 0 0 0 0 0 0 0 0 0 0 0 0 0 0 0 0 0 0 0 0 0 0 0 0 0 0 0 0 0 0 0 0
0 0 0 0 0 0 0 0 0 0 0 0 0 0 0 0 0 0 0 0 0 0 0 0 0 0 0 0 0 0 0 0 0 0 0 0 0 0 0 0 0 0 0
0 0 0 0 0 0 0 0 0 0 0 0 0 0 0 0 0 0 0 0 0 0 0 0 0 0 0 0 0 0 0 0 0 0 0 0 0 0 0 0 0 0 0
0 0 0 0 0 0 0 0 0 0 0 0 0 0 0 0 0 0 0 0 0 0 0 0 0 0 0 0 0 0 0 0 0 0 0 0 0 0 0 0 0 0 0
0 0 0 0 0 0 0 0 0 0 0 0 0 0 0 0 0 0 0 0 0 0 0 0 0 0 0 0 0 0 0 0 0 0 0 0 0 0 0 0 0 0 0
0 0 0 0 0 0 0 0 0 0 0 0 0 0 0 0 0 0 0 0 0 0 0 0 0 0 0 0 0 0 0 0 0 0 0 0 0 0 0 0 0 0 0
Wind_Speed
4 3 3 3 3 3 3 3 3 3 3 3 3 3 2 2 2 1 2 2 3 3 3 2 2 2 2 2 3 2 2 1 1 2 2 2 3 3 3 3 3 3 2
4 3 3 3 3 3 4 4 4 3 4 3 3 2 2 2 2 1 2 2 3 3 3 3 3 3 3 3 3 3 2 1 1 2 2 3 3 3 3 2 3 3 3
5 4 3 3 3 3 4 3 4 4 4 4 3 2 2 1 2 2 2 2 3 3 3 3 3 3 3 3 3 3 3 2 2 2 2 3 3 1 3 3 3 3 3
4 3 3 3 3 4 3 3 3 3 3 4 4 5 3 3 3 2 2 2 2 2 2 3 3 3 2 3 3 3 3 3 2 2 2 3 3 3 2 3 3 3 4
3 3 3 3 3 2 2 2 2 2 3 3 4 4 4 3 2 2 2 2 1 1 2 2 2 2 2 2 2 2 2 2 2 2 2 2 3 4 4 4 3 3 3
2 2 2 2 1 1 1 1 2 2 3 3 3 4 4 4 3 3 2 2 1 1 1 2 2 2 2 2 2 2 3 2 3 3 3 3 3 3 4 5 4 4 3
1 1 1 1 1 1 1 2 2 2 2 3 3 4 4 4 4 3 3 3 2 2 2 2 2 2 2 2 2 3 3 3 3 3 3 3 3 3 3 4 5 5 4
0 1 1 1 2 2 1 2 2 2 2 2 3 3 3 3 2 3 3 3 2 2 2 2 2 2 2 2 3 2 3 3 4 4 4 3 3 3 3 4 4 5 4
1 0 0 1 1 1 1 1 2 1 1 1 2 2 3 3 3 3 3 2 2 2 3 3 3 3 3 3 3 3 4 4 4 4 4 4 3 3 3 4 4 4 5
1 1 1 1 0 0 0 1 1 1 1 1 1 1 2 2 3 3 3 3 3 2 3 3 3 3 3 4 4 4 4 5 4 4 5 5 4 3 3 3 4 4 5
1 1 1 1 1 0 0 1 1 1 1 1 1 1 1 2 2 2 3 3 3 3 3 3 3 3 4 4 4 4 4 5 5 4 5 5 5 4 3 4 4 4 5
2 1 1 1 1 1 1 1 1 1 1 1 1 1 1 1 2 2 2 3 3 3 3 3 4 4 4 4 5 5 5 5 5 5 5 5 4 5 4 4 5 5 5
2 2 1 1 1 1 1 1 2 1 1 1 1 1 1 2 2 2 2 2 3 3 3 4 4 4 4 5 5 5 5 5 5 5 5 6 6 6 5 5 5 4 5
3 2 2 2 2 2 2 2 2 2 1 1 1 1 2 2 2 2 2 2 3 3 3 4 4 4 4 5 5 5 5 5 5 5 5 6 6 6 6 5 5 5 5
3 3 3 3 2 2 2 2 2 2 2 1 1 2 2 2 2 2 2 2 2 3 3 4 4 4 4 4 5 5 5 5 5 5 6 6 6 7 6 5 5 5 5
4 4 3 3 3 3 3 3 2 2 2 2 2 2 2 2 2 2 2 2 2 3 3 4 4 4 3 4 6 6 5 5 6 6 5 5 6 7 8 9 9 8 7
5 4 4 3 3 3 3 3 2 2 2 2 2 2 2 2 2 2 2 2 3 3 3 4 4 4 4 5 6 7 6 6 6 6 5 4 5 6 6 7 9 9 10
5 4 3 3 2 2 2 2 2 2 2 2 2 2 2 2 2 2 2 2 2 3 3 3 4 4 4 5 6 6 5 5 6 6 6 6 6 5 6 6 6 7 7
4 3 3 2 2 2 2 2 2 2 2 2 2 2 2 2 3 3 3 3 3 3 3 3 4 4 4 5 5 6 4 4 5 5 6 6 6 7 7 6 6 6 6
2 2 2 2 2 3 2 2 2 3 3 3 3 3 3 3 3 3 3 3 3 3 3 3 4 4 5 5 5 6 4 4 4 4 5 6 7 7 7 6 6 6 5
2 2 2 2 2 2 2 2 3 3 3 2 2 3 3 3 3 3 3 3 3 3 3 3 3 4 5 5 6 6 4 4 4 4 4 4 6 7 7 7 5 6 5
1 1 1 1 2 2 2 3 3 3 2 2 2 2 2 2 2 3 3 3 3 3 3 3 3 3 4 5 5 6 6 5 4 4 4 3 4 6 6 6 6 6 5
1 1 1 2 2 2 2 3 3 2 2 2 2 2 2 2 3 3 3 3 2 2 2 3 3 3 3 3 5 6 6 6 4 3 4 4 4 5 5 5 5 4 3
1 1 1 2 2 2 2 2 3 2 2 2 2 2 2 2 2 2 2 2 2 3 2 3 3 3 3 3 3 3 3 4 4 4 4 4 4 4 4 4 3 2 2
2 2 2 2 3 3 2 2 2 2 2 2 2 2 2 2 2 2 2 3 3 3 4 3 3 3 4 3 4 3 3 2 2 2 2 2 2 2 2 2 2 2 2
2 2 3 3 3 3 3 2 2 2 2 2 2 2 2 2 2 2 2 3 4 5 6 6 5 5 5 6 6 6 5 4 4 3 2 3 3 2 2 2 2 2 2
Wind_Direction
229 218 214 200 200 202 201 198 191 185 185 191 196 194 195 196 198 208 208 204 204 196 198 197 192 201 208 214 215 216 224 233 249 248 243 235 236 241 241 245 246 246 256
223 215 206 197 206 209 209 210 204 197 201 206 206 210 205 209 210 208 219 216 213 205 200 197 196 201 207 210 209 210 220 227 239 258 255 240 217 214 229 239 247 256 263
231 223 208 206 214 220 219 218 211 208 208 201 186 170 178 190 199 213 221 224 220 210 207 202 200 201 205 207 213 217 220 223 231 254 264 261 251 240 211 232 242 256 266
230 230 222 217 226 228 223 224 217 215 209 197 192 186 193 204 214 210 206 214 217 205 197 199 197 202 211 211 214 222 228 227 224 231 253 281 301 273 253 219 236 260 269
234 237 231 226 235 233 221 227 220 217 206 201 201 201 207 209 197 190 187 193 196 201 193 195 193 201 206 213 213 215 224 233 240 240 238 245 260 265 268 263 256 258 261
234 239 228 210 219 214 204 218 219 221 211 199 203 210 208 203 195 195 193 198 193 197 198 199 192 204 206 212 219 217 221 225 238 245 244 246 248 250 257 268 275 272 270
221 224 210 194 207 212 200 213 219 224 217 203 207 214 214 211 210 208 205 206 202 210 212 204 203 207 211 211 214 215 223 224 229 236 242 246 253 261 263 270 278 279 281
231 223 222 207 208 208 205 212 224 226 221 214 217 215 211 211 213 215 214 214 216 218 214 207 210 212 215 214 217 221 228 229 228 235 242 247 248 248 251 264 276 280 271
255 255 240 231 211 200 209 226 235 227 228 237 225 222 213 209 205 207 208 212 217 215 216 216 215 214 219 225 228 227 229 231 230 233 240 247 248 247 249 254 261 271 278
284 295 281 280 276 242 258 269 256 245 270 264 249 236 220 209 207 204 203 212 222 222 220 227 228 224 223 223 225 230 230 232 233 234 236 243 249 248 246 248 252 257 268
292 309 314 321 321 349 283 249 262 291 293 273 259 236 218 206 211 215 215 219 223 223 226 231 234 233 233 231 230 231 234 235 237 236 240 244 248 249 246 247 250 250 255
293 297 306 313 325 328 302 284 285 295 284 266 253 250 232 219 219 225 227 225 227 227 228 232 235 237 235 233 235 237 237 239 241 241 245 246 247 246 249 247 250 253 255
297 287 279 279 287 296 300 292 287 294 282 248 239 244 234 227 229 235 236 237 236 235 232 232 235 239 239 237 239 239 241 242 242 243 246 250 249 248 249 250 253 258 259
284 274 272 273 279 283 284 286 285 286 278 241 229 240 238 233 237 239 237 244 246 246 244 240 241 242 242 242 241 243 245 247 247 248 248 250 250 250 252 252 252 257 261
273 266 261 267 277 283 285 287 284 281 274 251 235 249 256 250 242 238 237 243 250 256 257 253 250 247 244 243 246 246 247 248 249 248 246 246 247 250 252 255 255 254 256
269 266 260 263 269 277 284 288 282 276 266 255 251 256 259 258 248 240 238 242 249 252 253 253 257 259 257 250 250 252 250 249 250 252 251 247 239 240 244 249 257 257 256
266 262 254 254 258 264 272 275 280 276 261 256 255 256 254 256 259 251 245 249 256 258 260 261 262 265 267 261 256 253 255 253 252 253 253 249 246 245 246 248 251 253 253
260 258 257 256 257 264 274 277 275 266 255 251 251 253 254 261 267 260 255 261 263 263 266 266 266 268 270 265 259 260 253 255 254 253 251 249 250 245 248 249 252 255 255
256 254 258 262 266 268 267 265 268 261 249 248 251 255 256 261 264 260 260 260 261 265 267 265 263 265 269 265 263 263 258 254 256 254 252 249 249 246 249 251 254 258 261
260 249 260 270 272 274 262 253 261 256 253 258 260 262 259 257 259 261 265 264 261 264 268 263 262 264 269 271 269 262 250 254 259 257 251 243 247 251 250 252 253 255 261
275 252 243 249 258 258 248 249 259 266 272 270 266 264 260 258 257 259 258 254 253 259 262 266 267 266 269 272 271 267 251 250 255 257 256 250 248 252 256 258 255 257 267
290 268 254 273 279 264 247 252 268 285 285 268 261 263 266 266 257 251 251 246 247 254 259 262 270 272 270 268 270 266 256 260 255 257 257 256 257 261 265 263 257 258 267
275 268 251 275 290 279 255 256 276 284 277 267 265 269 270 263 254 248 246 246 246 251 258 259 265 274 275 268 262 264 259 260 257 257 262 265 267 270 265 257 257 254 251
256 247 246 261 284 291 281 266 271 269 260 267 274 270 263 263 258 252 248 246 248 251 253 262 268 274 276 274 272 266 257 252 253 252 251 250 251 254 262 262 252 249 252
256 242 243 254 270 280 280 278 266 255 253 260 264 266 264 265 266 261 257 255 254 257 262 263 269 270 273 282 287 281 264 255 254 255 249 252 254 255 256 258 261 253 248
245 246 251 254 265 269 274 276 261 245 241 251 261 262 262 264 265 270 273 256 256 269 267 269 270 275 277 285 285 281 271 263 254 252 256 255 252 255 259 262 266 254 249